Location: Asheville, NC
(35.6000°N, 82.5500°W)
Time: 10:00:40

SO-50 - Pass Details

Date: 11 January 2018
Orbit: 605 x 682 km, 64.6° (Epoch: 21 March)

Event Time Altitude Azimuth Distance (km) Brightness Sun altitude
Rises 07:09:23 0° 171° (S) 2,838 ? -6.5°
Reaches altitude 10° 07:12:13 10° 152° (SSE) 1,943 ? -6.0°
Maximum altitude 07:15:09 18° 109° (ESE) 1,513 ? -5.4°
Drops below altitude 10° 07:18:07 10° 67° (ENE) 1,967 ? -4.9°
Sets 07:21:00 0° 48° (NE) 2,888 ? -4.3°
